When you browse on this site, cookies collect data to enhance your experience and personalize the content and advertising you see.
Visit our Privacy Policy to learn more. By continuing to use the site, you agree to this use of cookies and data.
  • In Österreich
  • Länderverzeichnis
  • Für 7 Tage
  • Wassertemperatur
  • Wetterkarte
  • News
  • Widgets
  • user-avatar
    Anmelden

    Stündliche Wetter Pabna

    Heute, 29 Februar, Samstag

    Zeit Temperatur Niederschläge Wind Luftdruck Luftfeuchtigkeit
    00:00 +22°C° 0 mm 1 m/S 757 mmHg 43%
    01:00 +21°C° 0 mm 2 m/S 757 mmHg 44%
    02:00 +20°C° 0 mm 2 m/S 756 mmHg 45%
    03:00 +20°C° 0 mm 2 m/S 756 mmHg 46%
    04:00 +20°C° 0 mm 2 m/S 756 mmHg 47%
    05:00 +19°C° 0 mm 2 m/S 756 mmHg 49%
    06:00 +20°C° 0 mm 1 m/S 756 mmHg 55%
    07:00 +21°C° 0 mm 2 m/S 757 mmHg 50%
    08:00 +24°C° 0 mm 2 m/S 757 mmHg 44%
    09:00 +26°C° 0 mm 2 m/S 758 mmHg 39%
    10:00 +28°C° 0 mm 2 m/S 758 mmHg 36%
    11:00 +29°C° 0 mm 2 m/S 758 mmHg 33%
    12:00 +31°C° 0 mm 1 m/S 758 mmHg 30%
    13:00 +31°C° 0 mm 2 m/S 757 mmHg 28%
    14:00 +32°C° 0 mm 2 m/S 756 mmHg 26%
    15:00 +32°C° 0 mm 2 m/S 755 mmHg 24%
    16:00 +31°C° 0 mm 2 m/S 755 mmHg 27%
    17:00 +30°C° 0 mm 2 m/S 755 mmHg 30%
    18:00 +28°C° 0 mm 2 m/S 754 mmHg 33%
    19:00 +27°C° 0 mm 2 m/S 755 mmHg 34%
    20:00 +26°C° 0 mm 2 m/S 755 mmHg 35%
    21:00 +25°C° 0 mm 2 m/S 756 mmHg 36%
    22:00 +25°C° 0 mm 2 m/S 756 mmHg 36%
    23:00 +24°C° 0 mm 2 m/S 756 mmHg 37%

    Morgen, 1 März, Sonntag

    Zeit Temperatur Niederschläge Wind Luftdruck Luftfeuchtigkeit
    00:00 +24°C° 0 mm 2 m/S 756 mmHg 37%
    01:00 +23°C° 0 mm 2 m/S 756 mmHg 38%
    02:00 +23°C° 0 mm 1 m/S 756 mmHg 40%
    03:00 +22°C° 0 mm 1 m/S 755 mmHg 41%
    04:00 +22°C° 0 mm 1 m/S 755 mmHg 43%
    05:00 +22°C° 0 mm 1 m/S 756 mmHg 45%
    06:00 +21°C° 0 mm 1 m/S 756 mmHg 47%
    07:00 +23°C° 0 mm 1 m/S 756 mmHg 43%
    08:00 +25°C° 0 mm 1 m/S 757 mmHg 39%
    09:00 +27°C° 0 mm 1 m/S 758 mmHg 35%
    10:00 +29°C° 0 mm 1 m/S 758 mmHg 32%
    11:00 +31°C° 0 mm 1 m/S 757 mmHg 29%
    12:00 +32°C° 0 mm 1 m/S 757 mmHg 27%
    13:00 +34°C° 0 mm 2 m/S 756 mmHg 26%
    14:00 +34°C° 0 mm 2 m/S 755 mmHg 25%
    15:00 +35°C° 0 mm 2 m/S 754 mmHg 24%
    16:00 +32°C° 0 mm 2 m/S 754 mmHg 27%
    17:00 +31°C° 0 mm 2 m/S 754 mmHg 30%
    18:00 +30°C° 0 mm 1 m/S 754 mmHg 33%
    19:00 +29°C° 0 mm 1 m/S 754 mmHg 34%
    20:00 +28°C° 0 mm 1 m/S 754 mmHg 35%
    21:00 +27°C° 0 mm 1 m/S 755 mmHg 37%
    22:00 +26°C° 0 mm 1 m/S 755 mmHg 38%
    23:00 +26°C° 0 mm 1 m/S 755 mmHg 40%

    übermorgen, 2 März, Montag

    Zeit Temperatur Niederschläge Wind Luftdruck Luftfeuchtigkeit
    00:00 +25°C° 0 mm 1 m/S 755 mmHg 41%
    01:00 +24°C° 0 mm 1 m/S 755 mmHg 43%
    02:00 +24°C° 0 mm 1 m/S 755 mmHg 45%
    03:00 +23°C° 0 mm 1 m/S 755 mmHg 46%
    04:00 +23°C° 0 mm 1 m/S 755 mmHg 47%
    05:00 +23°C° 0 mm 1 m/S 755 mmHg 48%
    06:00 +22°C° 0 mm 1 m/S 755 mmHg 49%
    07:00 +25°C° 0 mm 1 m/S 756 mmHg 45%
    08:00 +27°C° 0 mm 1 m/S 756 mmHg 41%
    09:00 +29°C° 0 mm 1 m/S 757 mmHg 37%
    10:00 +31°C° 0 mm 2 m/S 757 mmHg 34%
    11:00 +34°C° 0 mm 2 m/S 756 mmHg 30%
    12:00 +35°C° 0 mm 3 m/S 756 mmHg 26%
    13:00 +36°C° 0 mm 3 m/S 755 mmHg 24%
    14:00 +36°C° 0 mm 3 m/S 754 mmHg 23%
    15:00 +36°C° 0 mm 4 m/S 753 mmHg 21%
    16:00 +35°C° 0 mm 3 m/S 753 mmHg 25%
    17:00 +33°C° 0 mm 3 m/S 753 mmHg 28%
    18:00 +30°C° 0 mm 3 m/S 753 mmHg 32%
    19:00 +29°C° 0 mm 3 m/S 753 mmHg 35%
    20:00 +28°C° 0 mm 3 m/S 754 mmHg 39%
    21:00 +26°C° 0 mm 2 m/S 754 mmHg 42%
    22:00 +26°C° 0 mm 2 m/S 754 mmHg 46%
    23:00 +25°C° 0 mm 2 m/S 754 mmHg 49%

    3 März, Dienstag

    Zeit Temperatur Niederschläge Wind Luftdruck Luftfeuchtigkeit
    00:00 +24°C° 0 mm 2 m/S 754 mmHg 53%
    01:00 +23°C° 0 mm 2 m/S 754 mmHg 55%
    02:00 +23°C° 0 mm 2 m/S 754 mmHg 57%
    03:00 +23°C° 0 mm 1 m/S 754 mmHg 60%
    04:00 +22°C° 0 mm 1 m/S 754 mmHg 60%
    05:00 +22°C° 0 mm 1 m/S 754 mmHg 61%
    06:00 +22°C° 0 mm 1 m/S 754 mmHg 62%
    07:00 +24°C° 0 mm 1 m/S 755 mmHg 57%
    08:00 +26°C° 0 mm 2 m/S 756 mmHg 51%
    09:00 +28°C° 0 mm 2 m/S 757 mmHg 46%
    10:00 +30°C° 0 mm 2 m/S 756 mmHg 41%
    11:00 +32°C° 0 mm 2 m/S 756 mmHg 36%
    12:00 +35°C° 0 mm 2 m/S 755 mmHg 31%
    13:00 +35°C° 0 mm 2 m/S 754 mmHg 29%
    14:00 +35°C° 0 mm 3 m/S 753 mmHg 28%
    15:00 +36°C° 0 mm 3 m/S 752 mmHg 26%
    16:00 +33°C° 0.3 mm 4 m/S 752 mmHg 36%
    17:00 +29°C° 0.3 mm 5 m/S 751 mmHg 45%
    18:00 +27°C° 0.3 mm 6 m/S 751 mmHg 54%
    19:00 +27°C° 0 mm 5 m/S 752 mmHg 53%
    20:00 +27°C° 0 mm 4 m/S 752 mmHg 52%
    21:00 +27°C° 0 mm 3 m/S 753 mmHg 51%
    22:00 +26°C° 0.1 mm 3 m/S 753 mmHg 54%
    23:00 +25°C° 0.1 mm 2 m/S 753 mmHg 57%

    4 März, Mittwoch

    Zeit Temperatur Niederschläge Wind Luftdruck Luftfeuchtigkeit
    00:00 +25°C° 0.1 mm 1 m/S 753 mmHg 60%
    01:00 +24°C° 0 mm 1 m/S 753 mmHg 63%
    02:00 +23°C° 0 mm 2 m/S 753 mmHg 66%
    03:00 +23°C° 0 mm 2 m/S 753 mmHg 69%
    04:00 +23°C° 0 mm 2 m/S 753 mmHg 71%
    05:00 +21°C° 0 mm 2 m/S 754 mmHg 73%
    06:00 +21°C° 0 mm 2 m/S 754 mmHg 74%
    07:00 +24°C° 0 mm 2 m/S 755 mmHg 69%
    08:00 +26°C° 0 mm 3 m/S 756 mmHg 64%
    09:00 +28°C° 0 mm 3 m/S 756 mmHg 59%
    10:00 +30°C° 0 mm 3 m/S 756 mmHg 52%
    11:00 +33°C° 0 mm 3 m/S 756 mmHg 44%
    12:00 +35°C° 0 mm 3 m/S 755 mmHg 37%
    13:00 +35°C° 0 mm 2 m/S 754 mmHg 33%
    14:00 +36°C° 0 mm 2 m/S 753 mmHg 29%
    15:00 +37°C° 0 mm 2 m/S 752 mmHg 25%
    16:00 +35°C° 0 mm 2 m/S 752 mmHg 30%
    17:00 +34°C° 0 mm 3 m/S 752 mmHg 35%
    18:00 +31°C° 0 mm 3 m/S 752 mmHg 39%
    19:00 +29°C° 0.8 mm 4 m/S 753 mmHg 50%
    20:00 +26°C° 0.8 mm 4 m/S 754 mmHg 60%
    21:00 +23°C° 0.8 mm 5 m/S 754 mmHg 71%
    22:00 +23°C° 0 mm 4 m/S 754 mmHg 69%
    23:00 +23°C° 0 mm 4 m/S 755 mmHg 68%

    5 März, Donnerstag

    Zeit Temperatur Niederschläge Wind Luftdruck Luftfeuchtigkeit
    00:00 +22°C° 0 mm 3 m/S 755 mmHg 66%
    01:00 +23°C° 0 mm 2 m/S 754 mmHg 71%
    02:00 +23°C° 0 mm 2 m/S 754 mmHg 76%
    03:00 +23°C° 0 mm 1 m/S 754 mmHg 81%
    04:00 +23°C° 0.3 mm 2 m/S 754 mmHg 83%
    05:00 +21°C° 0.3 mm 3 m/S 754 mmHg 85%
    06:00 +21°C° 0.3 mm 3 m/S 754 mmHg 88%
    07:00 +22°C° 0.1 mm 3 m/S 755 mmHg 82%
    08:00 +25°C° 0.1 mm 4 m/S 756 mmHg 76%
    09:00 +26°C° 0.1 mm 4 m/S 757 mmHg 71%
    10:00 +28°C° 0 mm 3 m/S 756 mmHg 63%
    11:00 +30°C° 0 mm 3 m/S 756 mmHg 56%
    12:00 +33°C° 0 mm 3 m/S 756 mmHg 48%
    13:00 +34°C° 0 mm 2 m/S 755 mmHg 43%
    14:00 +35°C° 0 mm 2 m/S 754 mmHg 38%
    15:00 +36°C° 0 mm 2 m/S 752 mmHg 33%
    16:00 +33°C° 0.9 mm 4 m/S 752 mmHg 43%
    17:00 +29°C° 0.9 mm 5 m/S 752 mmHg 54%
    18:00 +26°C° 0.9 mm 7 m/S 752 mmHg 64%
    19:00 +24°C° 0.4 mm 6 m/S 753 mmHg 65%
    20:00 +25°C° 0.4 mm 5 m/S 754 mmHg 66%
    21:00 +23°C° 0.4 mm 4 m/S 755 mmHg 67%
    22:00 +23°C° 0.1 mm 4 m/S 755 mmHg 69%
    23:00 +24°C° 0.1 mm 3 m/S 755 mmHg 72%
    Mehr zeigen